Regional Weather Roundup
Issued by NWS Newport/Morehead, NC

Current Version | Previous Version | Graphics & Text | Print | Product List | Glossary On
Versions: 1 2 3 4 5 6 7 8 9 10 11 12 13 14 15 16 17 18 19 20 21 22 23 24 25 26 27 28 29 30 31 32 33 34 35 36 37 38 39 40 41 42 43 44 45 46 47 48 49 50
000 ASUS42 KMHX 271622 RWRMHX WEATHER ROUNDUP FOR EASTERN NORTH CAROLINA NATIONAL WEATHER SERVICE NEWPORT/MOREHEAD CITY NC 1100 AM EST SAT DEC 27 2014 NOTE: "FAIR" INDICATES FEW OR NO CLOUDS BELOW 12,000 FEET WITH NO SIGNIFICANT WEATHER AND/OR OBSTRUCTIONS TO VISIBILITY NCZ015>017-031-032-045>047-102-103-271700- NORTH COAST CITY SKY/WX TMP DP RH WIND PRES REMARKS EDENTON SUNNY 54 39 57 SW3 30.33F ELIZABETH CITY SUNNY 57 41 55 S5 30.33F KITTY HAWK SUNNY 53 40 62 W3 30.32F MANTEO SUNNY 52 43 71 W3 30.34F $$ NCZ045>047-081-094-103-104-271700- CENTRAL COAST CITY SKY/WX TMP DP RH WIND PRES REMARKS FRISCO SUNNY 57 41 55 CALM 30.34F SWANQUARTER N/A 54 N/A N/A SW7 30.30F $$ NCZ095-097-098-100-101-271700- SOUTHERN COAST CITY SKY/WX TMP DP RH WIND PRES REMARKS BEAUFORT SUNNY 57 43 59 VRB3 30.34F CEDAR ISLAND N/A 52 N/A N/A NW2 30.39S JACKSONVILLE SUNNY 55 40 56 CALM 30.35F PINEY ISLAND SUNNY 57 44 62 CALM 30.34F WILMINGTON SUNNY 58 42 55 CALM 30.36F $$ NCZ011>013-027>030-043-044-078>080-089-090>093-098-271700- COASTAL PLAIN CITY SKY/WX TMP DP RH WIND PRES REMARKS AHOSKIE SUNNY 53 40 62 S3 30.33F CLINTON SUNNY 56 41 57 W3 30.35F ELIZABETHTOWN SUNNY 55 38 53 CALM 30.34F GOLDSBORO SUNNY 55 46 72 CALM 30.33F GREENVILLE SUNNY 55 37 50 CALM 30.34F HAVELOCK SUNNY 56 40 55 NW3 30.36F KENANSVILLE SUNNY 56 37 49 CALM 30.35F KINSTON SUNNY 55 37 50 SW3 30.35F NEW BERN SUNNY 58 41 53 W3 30.37S RICHLANDS SUNNY 57 39 51 S3 30.34F ROCKY MOUNT SUNNY 54 40 59 S5 30.34F WASHINGTON SUNNY 54 38 56 SW3 30.34F WHITEVILLE SUNNY 57 40 52 SE3 30.34F $$ AMZ130-135-150-152-154-156-158-170-250-252-270-ANZ085-086-088-633-658-670-271700- MARINE OBSERVATIONS STATION/POSITION TIME TEMP WIND PRES WAVE SWELL AIR SEA DIR/SP/G HT/PER HT/PER (UTC) (F) (DEG/KT/KT) (MB) (FT/S) (FT/S) CHESAPEAKE LIGHT 1600 47 210/ 8/ 9 1026.9 64 E VA BEACH 1600 52 52 230/ 6/ 6 1026.3 2/16 2/16 DUCK 1600 51 49 220/ 8/ 9 1026.1 2 E DUCK 1600 50 N/A 2/15 2/15 10 NE DUCK 1600 50 N/A 2/17 2/17 OREGON INLET 1600 50 53 220/ 4/ 5 1027.3 13E OREGON INLT 1600 50 N/A 3/15 2/15 HATTERAS CG 1600 51 54 340/ 4/ 4 1027.6 DIAMOND BUOY 1600 59 1027.6 3/16 17 S OCRACOKE NOT AVBL CAPE LOOKOUT 1600 55 350/ 6/ 8 1027.3 BEAUFORT LAB 1600 55 54 350/ 2/ 4 1026.4 30 SE NEW RIVER 1600 58 61 20/ 4/ 4 1028.2 2/17 2/17 5 SE WRIGHTSVLE NOT AVBL 225 S CAPE HAT 1507 69 74 100/ 8/ 12 1027.6 4/17 3/17 41 SE CHARLESTON 1600 65 74 40/ 12/ 14 1026.5 2/ 9 2/ 9 $$

USA.gov is the U.S. government's official web portal to all federal, state and local government web resources and services.